Location: Adrasan
(36.3319°N, 30.4314°E)
Time: 13:19:11
(UTC+00:00)

COSMOS 2455 - Visible Passes

Search period start: 21 May 2024 00:00
Search period end: 31 May 2024 00:00
Orbit: 898 x 911 km, 67.1° (Epoch: 20 May)

Date Brightness Start Highest point End Pass type
(mag) Time Alt. Az. Time Alt. Az. Time Alt. Az.
21 May 5.3 01:11:26 10° SE 01:14:25 14° ESE 01:17:25 10° ENE visible
22 May 5.0 01:13:48 10° SSE 01:18:04 21° ESE 01:22:21 10° ENE visible
23 May 4.5 01:16:43 10° SSE 01:21:45 29° ESE 01:26:49 10° NE visible
24 May 3.9 01:19:56 10° S 01:25:29 40° ESE 01:31:03 10° NE visible
25 May 3.4 01:23:36 11° S 01:29:14 57° ESE 01:35:08 10° NE visible
26 May 2.9 01:27:50 14° SSW 01:33:03 79° ESE 01:39:06 10° NNE visible
26 May 5.1 23:48:56 10° SE 23:51:47 14° ESE 23:54:38 10° ENE visible
27 May 2.9 01:32:00 16° SSW 01:36:55 77° WNW 01:42:58 10° NNE visible
27 May 4.7 23:52:56 16° SE 23:55:25 20° ESE 23:59:37 10° ENE visible
28 May 3.1 01:36:05 16° SW 01:40:49 56° WNW 01:46:45 10° NNE visible
28 May 4.3 23:56:59 23° SE 23:59:06 28° ESE 00:04:07 10° NE visible
29 May 3.5 01:40:08 15° WSW 01:44:46 41° WNW 01:50:27 10° NNE visible
30 May 3.7 00:00:58 31° SSE 00:02:49 39° ESE 00:08:22 10° NE visible
30 May 3.9 01:44:07 13° WSW 01:48:47 31° NW 01:54:04 10° N visible
